EHI
0 0 0 0 0 0 0 0 0 0 0 0 0 0 0 0 0 0 0 0 0 0 0 0 0 0 0 0 0 0 0 0 0 0 0 0 0 0 0 0 0 0 0
0 0 0 0 0 0 0 0 0 0 0 0 0 0 0 0 0 0 0 0 0 0 0 0 0 0 0 0 0 0 0 0 0 0 0 0 0 0 0 0 0 0 0
0 0 1 0 0 0 0 0 0 0 0 0 0 0 0 0 0 0 0 0 0 0 0 0 0 0 0 0 0 0 0 0 0 0 0 0 0 0 0 0 0 0 0
0 0 0 0 0 0 0 0 0 0 0 0 0 0 0 0 0 0 0 0 0 0 0 0 0 0 0 0 0 0 0 0 0 0 0 0 0 0 0 0 0 0 0
0 0 0 0 0 0 0 0 0 0 0 0 0 0 0 0 0 0 0 0 0 0 0 0 0 0 0 0 0 0 0 0 0 0 0 0 0 0 0 0 0 0 0
0 0 0 0 0 0 0 0 0 0 0 0 0 0 0 0 0 0 0 0 0 0 0 0 0 0 0 0 0 0 0 0 0 0 0 0 0 0 0 0 0 0 0
0 0 0 0 0 0 0 0 0 0 0 0 0 0 0 0 0 0 0 0 0 0 0 0 0 0 0 0 0 0 0 0 0 0 0 0 0 0 0 0 0 0 0
0 0 0 0 0 0 0 0 0 0 0 0 0 0 0 0 0 0 0 0 0 0 0 0 0 0 0 0 0 0 0 0 0 0 0 0 0 0 0 0 0 0 0
0 0 0 0 0 0 0 0 0 0 0 0 0 0 0 0 0 0 0 0 0 0 0 0 0 0 0 0 0 0 0 0 0 0 0 0 0 0 0 0 0 0 0
0 0 0 0 0 0 0 0 0 0 0 0 0 0 0 0 0 0 0 0 0 0 0 0 0 0 0 0 0 0 0 0 0 0 0 0 0 0 0 0 0 0 0
0 0 0 0 0 0 0 0 0 0 0 0 0 0 0 0 0 0 0 0 0 0 0 0 0 0 0 0 0 0 0 0 0 0 0 0 0 0 0 0 0 0 0
0 0 0 0 0 0 0 0 0 0 0 0 0 0 0 0 0 0 0 0 0 0 0 0 0 0 0 0 0 0 0 0 0 0 0 0 0 0 0 0 0 0 0
0 0 0 0 0 0 0 0 0 0 0 0 0 0 0 0 0 0 0 0 0 0 0 0 0 0 0 0 0 0 0 0 0 0 0 0 0 0 0 0 0 0 0
0 0 0 0 0 0 0 0 0 0 0 0 0 0 0 0 0 0 0 0 0 0 0 0 0 0 0 0 0 0 0 0 0 0 0 0 0 0 0 0 0 0 0
0 0 0 0 0 0 0 0 0 0 0 0 0 0 0 0 0 0 0 0 0 0 0 0 0 0 0 0 0 0 0 0 0 0 0 0 0 0 0 0 0 0 0
0 0 0 0 0 0 0 0 0 0 0 0 0 0 0 0 0 0 0 0 0 0 0 0 0 0 0 0 0 0 0 0 0 0 0 0 0 0 0 0 0 0 0
0 0 0 0 0 0 0 0 0 0 0 0 0 0 0 0 0 0 0 0 0 0 0 0 0 0 0 0 0 0 0 0 0 0 0 0 0 0 0 0 0 0 0
0 0 0 0 0 0 0 0 0 0 0 0 0 0 0 0 0 0 0 0 0 0 0 0 0 0 0 0 0 0 0 0 0 0 0 0 0 0 0 0 0 0 0
0 0 0 0 0 0 0 0 0 0 0 0 0 0 0 0 0 0 0 0 0 0 0 0 0 0 0 0 0 0 0 0 0 0 0 0 0 0 0 0 0 0 0
0 0 0 0 0 0 0 0 0 0 0 0 0 0 0 0 0 0 0 0 0 0 0 0 0 0 0 0 0 0 0 0 0 0 0 0 0 0 0 0 0 0 0
0 0 0 0 0 0 0 0 0 0 0 0 0 0 0 0 0 0 0 0 0 0 0 0 0 0 0 0 0 0 0 0 0 0 0 0 0 0 0 0 0 0 0
0 0 0 0 0 0 0 0 0 0 0 0 0 0 0 0 0 0 0 0 0 0 0 0 0 0 0 0 0 0 0 0 0 0 0 0 0 0 0 0 0 0 0
0 0 0 0 0 0 0 0 0 0 0 0 0 0 0 0 0 0 0 0 0 0 0 0 0 0 0 0 0 0 0 0 0 0 0 0 0 0 0 0 0 0 0
0 0 0 0 0 0 0 0 0 0 0 0 0 0 0 0 0 0 0 0 0 0 0 0 0 0 0 0 0 0 0 0 0 0 0 0 0 0 0 0 0 0 0
0 0 0 0 0 0 0 0 0 0 0 0 0 0 0 0 0 0 0 0 0 0 0 0 0 0 0 0 0 0 0 0 0 0 0 0 0 0 0 0 0 0 0
0 0 0 0 0 0 0 0 0 0 0 0 0 0 0 0 0 0 0 0 0 0 0 0 0 0 0 0 0 0 0 0 0 0 0 0 0 0 0 0 0 0 0
Wind_Speed
3 3 4 4 4 4 4 4 3 2 2 2 3 2 1 1 2 2 3 4 3 3 3 3 3 3 2 2 3 3 3 2 2 3 2 1 2 2 2 2 2 3 3
3 3 4 4 3 4 4 4 4 3 3 2 2 2 2 1 2 2 2 3 3 3 3 4 3 3 3 3 3 3 3 2 2 2 3 2 0 0 1 2 2 2 2
3 3 3 4 4 4 4 4 4 4 3 2 2 3 3 2 2 2 2 2 3 3 3 4 4 4 4 3 3 2 3 3 1 1 3 3 3 1 0 1 2 2 2
2 3 4 4 4 4 4 4 4 4 4 4 3 4 4 3 3 3 2 2 2 3 3 4 4 4 3 4 3 2 2 4 3 1 1 2 3 3 1 0 1 2 2
1 3 4 5 4 4 4 3 4 4 4 4 5 4 3 2 2 3 3 3 2 3 3 3 3 3 3 4 4 2 2 2 3 2 1 1 1 2 3 2 1 0 1
1 1 2 3 3 3 3 3 4 4 4 4 5 5 5 5 5 4 4 3 2 2 3 4 3 3 3 4 4 3 3 2 3 2 2 2 2 1 2 2 1 1 1
1 0 2 3 3 3 4 4 4 4 4 4 4 4 5 6 6 5 5 4 3 2 4 4 4 3 4 4 4 3 3 3 3 2 2 2 1 1 2 2 1 0 1
2 1 1 3 3 3 3 3 4 3 4 4 4 4 4 3 3 5 5 5 4 4 4 4 4 4 4 4 4 3 3 3 3 3 3 2 1 1 2 2 2 1 1
2 2 1 2 3 4 4 3 3 3 3 4 3 3 4 4 3 4 4 4 4 4 5 5 5 5 5 5 5 4 4 4 3 3 3 2 2 2 1 1 2 3 2
3 3 2 1 1 3 3 3 3 3 3 3 3 2 3 3 3 3 4 4 4 5 6 6 5 5 5 5 5 4 4 4 3 3 3 2 2 2 2 2 1 2 3
3 2 2 1 1 2 3 2 2 3 3 3 2 2 2 2 3 3 4 4 4 5 5 5 5 5 5 5 5 4 5 5 4 4 4 4 3 2 2 2 2 2 2
2 2 2 2 2 1 1 2 2 2 3 3 3 3 3 3 3 3 4 4 5 5 5 5 5 5 5 5 6 5 5 5 5 5 4 4 3 3 3 2 3 2 3
3 3 2 2 1 1 1 1 1 1 2 2 3 2 2 3 3 3 3 4 4 4 5 5 5 5 5 5 5 5 5 5 5 5 5 5 4 4 3 3 3 2 2
3 3 3 2 2 2 1 1 1 1 1 2 2 2 2 2 2 2 3 3 4 4 4 5 5 5 5 5 5 5 5 5 4 5 5 5 5 5 4 4 3 3 2
4 4 3 2 2 1 1 1 1 0 0 1 1 2 2 2 2 2 2 2 3 4 4 4 4 4 4 5 5 5 5 5 4 4 4 4 5 6 5 4 4 3 3
5 4 3 3 2 1 1 0 0 0 0 1 1 1 1 2 2 2 2 2 2 3 3 4 4 5 4 7 8 6 5 4 5 4 4 4 5 6 7 7 7 6 5
5 4 4 3 2 2 1 1 1 0 0 1 0 1 1 2 2 2 2 2 3 3 3 4 4 4 5 8 8 8 5 4 4 4 4 3 4 6 4 5 6 7 9
4 4 3 3 3 2 1 1 1 1 0 1 0 0 1 1 1 2 2 2 2 2 3 3 4 4 5 8 8 8 4 3 4 5 5 5 4 5 5 5 4 5 5
3 3 3 3 3 2 2 1 1 1 0 0 0 0 0 1 1 2 2 1 2 2 2 3 3 3 4 7 8 7 3 3 4 4 5 5 5 7 8 6 5 5 5
3 3 3 3 3 3 2 1 1 0 1 1 1 0 0 1 2 2 1 1 1 2 1 2 2 3 3 6 8 8 3 4 4 4 4 7 8 9 9 6 5 6 5
4 4 4 3 3 3 2 2 2 1 1 1 0 0 0 1 1 1 1 1 1 1 1 1 2 2 4 5 7 8 4 4 4 3 3 4 8 9 10 8 6 8 6
4 4 4 4 3 3 2 2 2 2 1 0 0 0 0 0 1 1 1 1 2 2 1 1 2 2 2 4 6 9 8 6 4 4 3 4 7 8 8 7 8 9 7
4 3 3 4 4 3 2 2 3 2 1 1 1 0 0 0 0 1 1 1 1 1 1 1 2 2 1 2 6 8 9 8 5 4 6 6 7 7 6 8 9 7 3
3 3 3 3 4 4 3 3 3 2 1 1 1 0 0 0 0 0 1 1 2 2 2 2 2 2 2 2 2 3 3 5 4 3 4 6 7 6 6 6 5 3 3
3 3 3 4 4 4 4 3 3 2 2 1 1 0 0 1 1 1 1 2 2 3 3 3 3 3 3 5 6 4 3 3 3 2 2 2 2 3 3 3 3 3 2
4 4 4 4 4 3 4 4 3 2 1 1 1 1 1 0 0 1 1 2 2 3 4 4 3 3 5 5 6 6 6 7 7 4 3 3 3 4 4 3 3 3 3
Wind_Direction
180 159 150 145 139 137 139 141 139 137 140 146 144 139 158 145 126 129 135 137 142 142 136 141 140 136 140 151 145 125 114 101 107 103 94 56 80 104 105 104 112 112 110
169 153 150 152 157 151 150 154 157 156 161 164 160 145 144 149 137 125 127 137 141 146 146 140 140 132 130 129 129 128 131 131 125 133 134 134 65 330 126 112 122 128 123
179 167 163 165 163 165 167 171 172 169 162 147 132 128 120 118 128 143 138 137 140 146 142 145 142 142 142 144 141 151 147 153 166 142 142 149 175 152 146 170 142 136 135
192 171 172 172 174 177 171 172 171 172 167 156 158 162 156 163 172 158 142 141 139 142 142 145 144 144 142 144 150 156 155 145 162 168 89 125 135 135 140 266 182 160 154
238 186 178 176 171 167 164 170 166 175 171 167 168 178 170 158 142 138 140 147 149 149 146 145 144 146 144 146 149 153 153 143 149 150 137 103 77 109 137 175 222 243 209
283 209 176 160 160 153 154 166 168 176 178 177 176 184 177 161 151 150 154 154 155 154 150 143 145 150 145 146 151 150 147 143 138 137 131 135 139 156 143 157 176 209 234
3 334 151 145 157 165 167 178 174 178 184 185 187 189 182 171 167 162 163 161 165 170 171 157 154 152 146 144 142 140 146 150 151 154 150 137 143 144 133 136 158 173 259
17 11 109 151 162 166 169 176 182 182 186 187 186 184 182 177 173 170 168 175 176 175 168 160 155 152 148 147 146 143 153 151 158 164 149 137 147 126 127 143 141 141 285
27 29 21 136 157 167 170 176 182 177 182 185 181 182 180 178 179 171 165 168 163 158 158 161 158 157 157 157 156 156 163 157 163 164 159 153 156 140 135 136 151 158 193
23 24 19 38 128 159 162 163 168 170 170 168 174 177 173 173 172 163 168 166 161 156 160 164 164 164 164 163 161 161 162 158 164 162 160 164 162 152 150 154 165 163 172
11 12 6 22 85 121 143 153 157 152 156 162 158 155 160 164 160 163 174 167 158 158 162 164 166 169 169 166 165 169 165 166 168 170 171 178 169 166 170 166 174 185 173
17 20 27 36 45 72 126 150 156 155 163 164 161 165 169 169 170 174 173 167 163 163 164 164 168 171 172 170 172 176 174 175 177 177 175 186 180 183 183 178 191 200 197
27 31 35 27 31 29 40 78 122 138 141 150 157 160 168 176 183 181 175 170 166 166 167 166 172 177 178 177 178 177 178 179 181 179 182 188 182 194 193 190 198 206 211
26 26 20 13 33 39 29 20 29 86 127 142 156 169 178 182 184 181 173 171 168 170 176 176 177 178 180 179 178 177 178 179 181 182 186 190 191 196 195 199 203 200 205
16 8 2 360 17 37 32 16 10 46 151 163 174 188 176 169 168 171 175 170 173 179 178 175 175 174 177 183 178 179 180 179 184 187 190 193 193 194 197 204 200 196 202
357 351 350 352 355 356 353 340 267 243 189 182 193 182 169 171 171 174 173 171 178 176 172 176 177 180 190 186 184 183 181 182 188 194 195 197 198 203 215 222 221 214 210
347 342 337 333 328 324 333 294 225 177 163 184 178 184 175 173 170 167 171 179 184 179 180 185 183 188 191 188 190 193 186 188 195 197 197 206 211 212 210 227 237 239 242
344 337 333 333 332 338 5 8 65 88 150 175 168 182 180 177 169 167 185 193 187 185 191 194 190 187 193 192 196 198 198 200 205 204 203 207 214 209 207 211 222 230 240
347 337 330 332 343 351 1 16 39 65 39 354 319 339 169 172 182 195 198 198 182 189 198 191 184 186 196 196 198 198 192 206 219 216 211 211 213 222 221 215 222 236 245
358 351 346 353 359 351 0 7 347 2 297 281 274 266 204 200 203 201 198 201 181 191 190 201 193 190 200 206 205 202 196 208 219 222 221 222 223 228 225 216 215 233 242
353 356 358 355 346 348 2 352 332 308 300 313 310 264 216 211 195 180 181 176 170 167 190 220 225 208 205 211 212 211 207 209 215 220 222 224 232 235 232 228 223 238 249
353 356 355 347 346 355 2 338 315 309 321 355 344 327 321 216 149 161 177 174 170 172 199 231 248 238 219 212 218 221 226 222 215 225 225 226 236 243 245 241 247 255 259
344 347 346 342 343 347 347 320 314 333 348 16 331 330 50 31 150 167 179 183 185 187 206 214 237 249 242 232 231 233 237 238 228 227 235 242 243 247 248 249 254 254 241
338 338 340 339 333 337 341 334 333 337 337 325 313 345 123 247 199 184 191 192 202 204 213 221 231 245 245 234 225 224 234 239 243 243 245 246 243 244 247 250 246 233 225
331 332 331 324 324 333 339 342 343 343 335 317 296 288 257 241 245 245 237 229 229 218 219 223 220 225 244 238 227 220 217 214 223 222 217 221 225 226 234 237 234 227 232
329 332 330 324 326 338 338 340 347 344 332 309 292 279 262 252 253 286 317 304 263 264 258 250 245 249 248 256 251 247 249 247 246 239 221 228 228 232 233 234 236 231 232